[[{"header":{"parameterUnit":"m.s-1","parameterCategory":2,"la1":30.2991,"la2":30.254,"lo1":-89.0895,"lo2":-89.0444,"dy":0.0017,"dx":0.0017,"nx":28,"ny":28,"refTime":"2024-02-08T03:00:00:Z","depth":"0","parameterNumber":2,"parameterNumberName":"U-component_of_CURRENTS"},"data":[0,0,0,0,0,0,0,0,0,0,0,0,0,0,0,0,0,0,0,0,0,0,0,0,0,0,0,0,0,0,0,0,0,0,0,0,0,0,0,0,0,0,0,0,0,0,0,0,0,0,0,0,0,0,0,0,0,0,0.2659,0.2659,0,0.2659,0.2659,0.2658,0.2652,0.2652,0.2652,0.2652,0.2631,0.263,0.2629,0,0,0,0,0,0,0,0,0,0,0,0,0,0.2622,0.2622,0.2658,0.2659,0.2659,0.2659,0.2659,0.2658,0.2652,0.2652,0.2652,0.2652,0.2631,0.263,0.2629,0,0,0,0,0,0,0,0,0,0,0,0,0,0.2629,0.2623,0.2658,0.2658,0.2658,0.2659,0.2659,0.2658,0.2652,0.2652,0.2652,0.2652,0.2631,0.263,0.2629,0.2621,0,0,0.2626,0.2626,0,0,0,0,0,0,0,0,0.2628,0.263,0.2658,0.2658,0.2658,0.2658,0.2638,0.2646,0.2652,0.2651,0.2652,0.2652,0.264,0.2638,0.2634,0.262,0.2619,0.2626,0.2626,0.2625,0.2625,0,0,0,0,0,0,0,0.2628,0.263,0.2656,0.2658,0.2658,0.2647,0.2648,0.2639,0.2642,0.2651,0.2651,0.2656,0.2639,0.2635,0.2633,0.2619,0.2626,0.2625,0.2625,0.2624,0.266,0.2661,0,0,0,0,0,0,0.2635,0.2629,0.2656,0.2656,0.2646,0.2648,0.2649,0.2655,0.2643,0.2642,0.2656,0.2656,0.2636,0.2635,0.2633,0.267,0.2625,0.2624,0.2624,0.2658,0.266,0.2662,0,0,0,0,0,0,0.2634,0.2638,0.2656,0.2645,0.2647,0.2649,0.2656,0.2655,0.2659,0.2647,0.2645,0.2661,0.2636,0.2634,0.2636,0.2667,0.2624,0.2623,0.2656,0.2659,0.2661,0.2714,0,0,0,0,0,0,0.2633,0.2637,0.2641,0.2645,0.2648,0.2668,0.2656,0.2655,0.2662,0.2662,0.265,0.2648,0.2636,0.2637,0.2635,0.2665,0.2622,0.2654,0.2657,0.266,0.2711,0.2718,0.2724,0,0,0,0,0,0.2632,0.2638,0.2642,0.2645,0.2654,0.2669,0.2669,0.2669,0.2662,0.267,0.2662,0.2649,0.2654,0.2637,0.2634,0.2665,0.2653,0.2657,0.266,0.2707,0.2717,0.2724,0,0,0,0,0,0,0.262,0.2639,0.2642,0.2653,0.2666,0.2669,0.2673,0.2673,0.2672,0.267,0.2655,0.2652,0.2674,0.2659,0.2641,0.2686,0.2657,0.266,0.2694,0.2703,0.271,0.2715,0.2622,0,0,0,0,0,0.2622,0.2633,0.265,0.2658,0.2667,0.2671,0.2675,0.2679,0.268,0.2679,0.2673,0.2672,0.2685,0.2684,0.2689,0.2698,0.271,0.2722,0.2729,0.2735,0.2739,0.2789,0.2801,0.2673,0.2673,0.2673,0,0,0.2617,0.2631,0.2635,0.2657,0.2664,0.2683,0.2673,0.2687,0.2704,0.2677,0.2692,0.2695,0.2695,0.2718,0.2726,0.2707,0.278,0.2739,0.2744,0.2745,0.2794,0.2807,0.2818,0.2675,0.2675,0.2674,0,0,0.2617,0.263,0.2641,0.2661,0.2683,0.2691,0.27,0.2712,0.272,0.2733,0.2732,0.2752,0.2751,0.2767,0.2773,0.2819,0.282,0.2826,0.2857,0.2907,0.2917,0.2927,0.2967,0.298,0.2823,0.2823,0.2823,0,0.261,0.2626,0.2646,0.2669,0.2682,0.2699,0.2715,0.2733,0.2744,0.2759,0.2746,0.2783,0.278,0.2824,0.2843,0.2836,0.2859,0.2823,0.2916,0.2926,0.2935,0.2973,0.2987,0.2826,0.2826,0.2826,0.2825,0,0.2622,0.2638,0.2649,0.2684,0.2706,0.2721,0.2756,0.2779,0.2788,0.2806,0.2849,0.2851,0.2875,0.2885,0.2874,0.2943,0.2938,0.2924,0.2893,0.2951,0.2988,0.3001,0.2831,0.283,0.2829,0.2828,0,0,0.2585,0.2643,0.2644,0.2667,0.2712,0.2734,0.2776,0.2816,0.2851,0.2873,0.2916,0.2945,0.2956,0.2964,0.2966,0.3001,0.3086,0.2989,0.299,0.3027,0.3197,0.3214,0.3229,0.3089,0.3092,0.3094,0.32,0,0.258,0.2623,0.265,0.269,0.2714,0.2755,0.2794,0.2843,0.2878,0.2929,0.2962,0.3002,0.2986,0.3003,0.3042,0.308,0.3122,0.3058,0.3137,0.314,0.3146,0.3246,0.319,0.3282,0.3213,0.3215,0.3216,0,0.2573,0.2606,0.2637,0.2702,0.2716,0.2742,0.2813,0.2853,0.2937,0.2971,0.3027,0.3055,0.3126,0.3095,0.3198,0.316,0.3186,0.3205,0.321,0.3214,0.3181,0.3212,0.3308,0.3261,0.3236,0.3235,0.3233,0,0.2535,0.2594,0.2617,0.2639,0.2714,0.2736,0.2777,0.2858,0.2897,0.3002,0.3049,0.3131,0.3183,0.3234,0.329,0.3251,0.3401,0.3349,0.3388,0.3388,0.3351,0.3345,0.3407,0.3422,0.3422,0.3422,0.3422,0,0.2511,0.2531,0.2603,0.2616,0.2647,0.2719,0.2757,0.2821,0.2912,0.2978,0.3065,0.3144,0.3222,0.3313,0.3337,0.343,0.3449,0.3423,0.3432,0.3369,0.3363,0.3326,0.3283,0.3426,0.3425,0.3424,0.3424,0,0.2453,0.25,0.2529,0.2604,0.2622,0.2646,0.272,0.2764,0.287,0.2962,0.3001,0.3171,0.3315,0.339,0.3499,0.3502,0.3497,0.3589,0.3513,0.351,0.3474,0.3436,0.3349,0.3235,0.3644,0.3645,0.3646,0,0.2423,0.2435,0.2495,0.2507,0.2529,0.2574,0.2606,0.2716,0.2776,0.2983,0.3036,0.3219,0.3339,0.3531,0.3604,0.3684,0.3555,0.3654,0.3563,0.35,0.3463,0.3282,0.3176,0.3534,0.3534,0.3534,0.3534,0,0.2362,0.2381,0.2405,0.2431,0.2457,0.2486,0.2553,0.2587,0.2745,0.2851,0.3024,0.314,0.3389,0.3496,0.364,0.3671,0.3508,0.3656,0.3615,0.3418,0.3201,0.3085,0.3428,0.3534,0.3534,0.3534,0.3534,0.3534,0.2304,0.23,0.2335,0.2343,0.2374,0.2392,0.2385,0.2493,0.2577,0.2727,0.2924,0.3089,0.3359,0.3574,0.3587,0.3633,0.3517,0.3557,0.3529,0.3359,0.3208,0.3559,0.3658,0.3659,0.3659,0.366,0.366,0,0.2228,0.2236,0.2251,0.2256,0.2246,0.2296,0.2345,0.234,0.2404,0.2632,0.277,0.3076,0.325,0.3442,0.3639,0.3549,0.3318,0.3453,0.3189,0.3095,0.3462,0.342,0.3444,0.3444,0.3444,0.3444,0.3444,0.3444,0.2192,0.2171,0.2175,0.2124,0.2126,0.2085,0.2084,0.2112,0.2244,0.2432,0.2636,0.2829,0.3257,0.3568,0.3617,0.3515,0.3209,0.3085,0.2997,0.33,0.3306,0.3311,0.3264,0.3255,0.3254,0.2509,0.2504,0.25]},{"header":{"parameterUnit":"m.s-1","parameterCategory":2,"la1":30.2991,"la2":30.254,"lo1":-89.0895,"lo2":-89.0444,"dy":0.0017,"dx":0.0017,"nx":28,"ny":28,"refTime":"2024-02-08T03:00:00:Z","depth":"0","parameterNumber":3,"parameterNumberName":"V-component_of_CURRENTS"},"data":[0,0,0,0,0,0,0,0,0,0,0,0,0,0,0,0,0,0,0,0,0,0,0,0,0,0,0,0,0,0,0,0,0,0,0,0,0,0,0,0,0,0,0,0,0,0,0,0,0,0,0,0,0,0,0,0,0,0,-0.0013,-0.0014,0,-0.0096,-0.0097,-0.0098,-0.015,-0.015,-0.0151,-0.0151,-0.0271,-0.0274,-0.0277,0,0,0,0,0,0,0,0,0,0,0,0,0,0.0056,0.0055,-0.0013,-0.0014,-0.0015,-0.0096,-0.0097,-0.0098,-0.015,-0.015,-0.0151,-0.0151,-0.0271,-0.0274,-0.0278,0,0,0,0,0,0,0,0,0,0,0,0,0,0.0005,0.0055,-0.0012,-0.005,-0.0054,-0.0095,-0.0097,-0.0098,-0.015,-0.015,-0.0151,-0.0151,-0.0269,-0.0274,-0.0278,-0.0297,0,0,-0.0292,-0.0294,0,0,0,0,0,0,0,0,0.0008,0.0002,-0.0044,-0.0048,-0.0052,-0.0113,-0.0117,-0.0167,-0.015,-0.0114,-0.0151,-0.0151,-0.0221,-0.023,-0.0244,-0.0303,-0.0308,-0.0292,-0.0295,-0.0297,-0.0298,0,0,0,0,0,0,0,0.0011,0.0005,-0.0046,-0.0045,-0.005,-0.0078,-0.0086,-0.0127,-0.0165,-0.0117,-0.0121,-0.013,-0.0224,-0.024,-0.0248,-0.031,-0.0292,-0.0296,-0.0299,-0.03,-0.0383,-0.0382,0,0,0,0,0,0,0.0025,0.0009,-0.0043,-0.0048,-0.0022,-0.0079,-0.0087,-0.0093,-0.0164,-0.0175,-0.0129,-0.0132,-0.0232,-0.0242,-0.0252,-0.0269,-0.0297,-0.0301,-0.0303,-0.0383,-0.0383,-0.0382,0,0,0,0,0,0,0.0027,0.0021,-0.004,-0.0022,-0.0031,-0.0079,-0.0086,-0.0095,-0.0112,-0.0173,-0.0185,-0.0137,-0.0233,-0.0246,-0.0287,-0.0275,-0.0303,-0.0307,-0.0384,-0.0383,-0.0382,-0.031,0,0,0,0,0,0,0.0029,0.0023,0.0024,-0.002,-0.0032,-0.0059,-0.0086,-0.0096,-0.0116,-0.012,-0.0184,-0.0195,-0.0234,-0.028,-0.0291,-0.0281,-0.031,-0.0384,-0.0383,-0.0383,-0.0313,-0.0307,-0.0302,0,0,0,0,0,0.0032,0.0038,0.0025,0.0019,-0.0028,-0.0059,-0.0067,-0.0103,-0.0116,-0.012,-0.0163,-0.0193,-0.0282,-0.0284,-0.0297,-0.0288,-0.0385,-0.0384,-0.0383,-0.0316,-0.0308,-0.0302,0,0,0,0,0,0,0.0068,0.0032,0.0017,0.0011,-0.0019,-0.0067,-0.0073,-0.0098,-0.0135,-0.0138,-0.0196,-0.021,-0.024,-0.0274,-0.0274,-0.0308,-0.0335,-0.0337,-0.028,-0.0273,-0.0268,-0.0243,-0.0314,0,0,0,0,0,0.0079,0.0075,0.0032,0.003,0.0017,-0.0027,-0.0043,-0.0067,-0.0106,-0.0122,-0.0165,-0.0208,-0.0246,-0.0267,-0.0306,-0.0329,-0.0361,-0.0329,-0.0324,-0.0319,-0.0307,-0.035,-0.0347,-0.0379,-0.0379,-0.0379,0,0,0.0092,0.0072,0.007,0.0037,0.0012,0.0003,-0.0037,-0.0056,-0.0062,-0.013,-0.0149,-0.0194,-0.0248,-0.0272,-0.0287,-0.03,-0.0325,-0.0317,-0.0313,-0.0303,-0.0348,-0.0345,-0.0343,-0.0378,-0.0378,-0.0378,0,0,0.0121,0.01,0.0107,0.0086,0.0054,0.0028,0.0026,-0.0019,-0.0037,-0.0065,-0.011,-0.0147,-0.0204,-0.0238,-0.0263,-0.0251,-0.0296,-0.0259,-0.0211,-0.0253,-0.025,-0.0249,-0.0279,-0.0281,-0.0255,-0.0254,-0.0254,0,0.0141,0.0141,0.0104,0.0104,0.0097,0.0045,0.0053,0.0025,-0.0026,-0.0035,-0.006,-0.0136,-0.0186,-0.0213,-0.0207,-0.0238,-0.0264,-0.0232,-0.0245,-0.0244,-0.0243,-0.0275,-0.0278,-0.0251,-0.0251,-0.0252,-0.0252,0,0.017,0.0171,0.0174,0.0161,0.0148,0.0145,0.0106,0.0092,0.0064,0.0034,0.0001,-0.0067,-0.011,-0.0131,-0.0168,-0.0183,-0.0203,-0.0234,-0.0259,-0.0236,-0.0271,-0.0275,-0.0246,-0.0247,-0.0248,-0.0249,0,0,0.0217,0.0201,0.0202,0.0213,0.018,0.0178,0.017,0.015,0.0157,0.0099,0.0099,0.0027,-0.001,-0.004,-0.0092,-0.0127,-0.0152,-0.0169,-0.0173,-0.0193,-0.0234,-0.0239,-0.0244,-0.0186,-0.0186,-0.0186,-0.0258,0,0.0254,0.0276,0.0255,0.0283,0.0293,0.0254,0.0256,0.0232,0.0203,0.0188,0.0115,0.0091,0.0025,0.001,-0.0038,-0.0121,-0.016,-0.0129,-0.0258,-0.0262,-0.0265,-0.0248,-0.0227,-0.0288,-0.0262,-0.0263,-0.0263,0,0.0291,0.0303,0.0337,0.0353,0.0356,0.0363,0.0369,0.0361,0.0319,0.0296,0.0251,0.0198,0.0139,0.0078,-0.0051,-0.0026,-0.0119,-0.0189,-0.0195,-0.0225,-0.0274,-0.0309,-0.0297,-0.048,-0.027,-0.027,-0.0269,0,0.0348,0.0365,0.0401,0.0403,0.0406,0.042,0.0418,0.0393,0.0407,0.0364,0.0371,0.0282,0.0251,0.0123,-0.0018,-0.0036,-0.0158,-0.0208,-0.0302,-0.0303,-0.0323,-0.0325,-0.0497,-0.0301,-0.0301,-0.0301,-0.0301,0,0.0396,0.0426,0.0432,0.0451,0.05,0.0479,0.0521,0.0503,0.0498,0.0535,0.0431,0.0447,0.0263,0.0174,0.002,-0.0139,-0.0135,-0.0284,-0.032,-0.0296,-0.0295,-0.0486,-0.0604,-0.0304,-0.0303,-0.0303,-0.0302,0,0.0448,0.0449,0.0496,0.0516,0.0527,0.0558,0.0589,0.0625,0.0602,0.0648,0.0646,0.0574,0.0461,0.0275,0.0079,-0.0072,-0.0346,-0.0299,-0.025,-0.0279,-0.0542,-0.0654,-0.0873,-0.0955,-0.0419,-0.0419,-0.0419,0,0.0475,0.0503,0.0547,0.058,0.0591,0.063,0.0667,0.067,0.0719,0.074,0.0781,0.0698,0.0663,0.0369,0.0094,-0.0171,-0.0361,-0.0337,-0.0376,-0.0545,-0.0699,-0.0786,-0.0846,-0.0377,-0.0377,-0.0377,-0.0377,0,0.0528,0.0543,0.0579,0.0644,0.0694,0.0755,0.0811,0.087,0.0898,0.0945,0.1003,0.0982,0.0721,0.0481,0.0117,-0.0087,-0.0473,-0.0347,-0.0543,-0.0693,-0.0779,-0.0877,-0.034,-0.0378,-0.0378,-0.0378,-0.0378,-0.0378,0.0569,0.0602,0.0648,0.0711,0.0778,0.0872,0.093,0.1015,0.1111,0.1208,0.1188,0.1208,0.0852,0.0363,0.0054,-0.0473,-0.0501,-0.0633,-0.0758,-0.0832,-0.091,-0.0361,-0.0427,-0.0427,-0.0428,-0.0428,-0.0428,0,0.0612,0.0648,0.0712,0.0791,0.0875,0.09,0.1027,0.1101,0.1229,0.1358,0.1416,0.1308,0.0826,0.0337,-0.0365,-0.0784,-0.0953,-0.1027,-0.116,-0.1202,-0.0729,-0.0723,-0.0829,-0.0828,-0.0828,-0.0828,-0.0828,-0.0828,0.0637,0.0697,0.0725,0.0854,0.0919,0.1036,0.1113,0.1234,0.1355,0.1518,0.16,0.1632,0.1324,-0.003,-0.0973,-0.1216,-0.1507,-0.159,-0.1746,-0.1438,-0.1411,-0.1385,-0.1407,-0.1654,-0.1655,-0.2145,-0.215,-0.2154]}],[{"header":{"parameterUnit":"m.s-1","parameterCategory":2,"la1":30.2991,"la2":30.254,"lo1":-89.0895,"lo2":-89.0444,"dy":0.0017,"dx":0.0017,"nx":28,"ny":28,"refTime":"2024-02-08T03:00:00:Z","depth":"2","parameterNumber":2,"parameterNumberName":"U-component_of_CURRENTS"},"data":[0,0,0,0,0,0,0,0,0,0,0,0,0,0,0,0,0,0,0,0,0,0,0,0,0,0,0,0,0,0,0,0,0,0,0,0,0,0,0,0,0,0,0,0,0,0,0,0,0,0,0,0,0,0,0,0,0,0,0.2604,0.2604,0,0.2611,0.261,0.261,0.261,0.261,0.261,0.2611,0.2599,0.2599,0.2598,0,0,0,0,0,0,0,0,0,0,0,0,0,0.2563,0.2563,0.2604,0.2604,0.2604,0.2611,0.261,0.261,0.261,0.261,0.261,0.2611,0.2599,0.2599,0.2598,0,0,0,0,0,0,0,0,0,0,0,0,0,0.2574,0.2564,0.2604,0.2607,0.2608,0.2611,0.261,0.261,0.261,0.261,0.261,0.2611,0.2599,0.2599,0.2598,0.259,0,0,0.2596,0.2596,0,0,0,0,0,0,0,0,0.2573,0.2575,0.2606,0.2607,0.2608,0.2612,0.2592,0.2603,0.261,0.2606,0.2611,0.2611,0.2603,0.2602,0.26,0.2589,0.2589,0.2596,0.2596,0.2595,0.2595,0,0,0,0,0,0,0,0.2572,0.2574,0.2604,0.2607,0.2607,0.2599,0.2601,0.2594,0.2601,0.2607,0.2607,0.2612,0.2603,0.26,0.2599,0.2588,0.2596,0.2596,0.2595,0.2595,0.2636,0.2637,0,0,0,0,0,0,0.2578,0.2574,0.2604,0.2604,0.2594,0.26,0.2602,0.2608,0.2602,0.2602,0.2612,0.2612,0.2601,0.26,0.2599,0.2641,0.2595,0.2595,0.2594,0.2634,0.2636,0.2638,0,0,0,0,0,0,0.2577,0.2581,0.2603,0.2591,0.2594,0.2601,0.2608,0.2608,0.2615,0.2606,0.2606,0.262,0.2601,0.26,0.2606,0.2638,0.2594,0.2594,0.2633,0.2635,0.2637,0.2691,0,0,0,0,0,0,0.2576,0.2581,0.2587,0.2592,0.2595,0.2618,0.2608,0.2608,0.2619,0.2619,0.2613,0.2611,0.2601,0.2607,0.2605,0.2637,0.2593,0.2631,0.2634,0.2636,0.2687,0.2694,0.2701,0,0,0,0,0,0.2575,0.2583,0.2587,0.2591,0.2603,0.2619,0.262,0.2623,0.2619,0.2628,0.2623,0.2612,0.2624,0.2607,0.2605,0.2637,0.2629,0.2633,0.2636,0.2684,0.2693,0.27,0,0,0,0,0,0,0.2565,0.2584,0.2588,0.2601,0.2616,0.262,0.2627,0.2629,0.2631,0.2632,0.2619,0.2618,0.2643,0.2629,0.2611,0.2659,0.263,0.2633,0.2667,0.2676,0.2682,0.2687,0.2593,0,0,0,0,0,0.2567,0.258,0.2597,0.2608,0.2617,0.2623,0.2629,0.2635,0.2638,0.264,0.2637,0.2639,0.2653,0.2654,0.2661,0.2673,0.2683,0.2698,0.2705,0.271,0.2714,0.2761,0.2773,0.2649,0.2649,0.2649,0,0,0.2564,0.2578,0.2584,0.2607,0.2616,0.2635,0.2627,0.2644,0.2662,0.2637,0.2657,0.2662,0.2663,0.2688,0.2699,0.268,0.2753,0.2715,0.272,0.272,0.2766,0.2778,0.2789,0.2651,0.2651,0.265,0,0,0.2566,0.2581,0.2594,0.2613,0.2638,0.2646,0.2655,0.2669,0.268,0.2696,0.2696,0.2718,0.2722,0.2739,0.2745,0.2792,0.2792,0.28,0.2832,0.2878,0.2888,0.2898,0.2934,0.2946,0.2798,0.2799,0.2799,0,0.2562,0.2579,0.2599,0.2622,0.2637,0.2655,0.2671,0.2691,0.2705,0.2721,0.2711,0.2751,0.2751,0.2794,0.2814,0.2809,0.283,0.2798,0.2887,0.2896,0.2905,0.294,0.2953,0.2802,0.2801,0.2801,0.2801,0,0.2575,0.2593,0.2604,0.264,0.2662,0.2679,0.2713,0.2738,0.275,0.2768,0.2814,0.2818,0.2844,0.2856,0.2846,0.2913,0.2909,0.2894,0.2865,0.2921,0.2954,0.2966,0.2806,0.2805,0.2804,0.2803,0,0,0.2544,0.26,0.2602,0.2625,0.267,0.2692,0.2735,0.2775,0.281,0.2836,0.288,0.2911,0.2923,0.2932,0.2936,0.2969,0.305,0.2958,0.296,0.2992,0.3154,0.3155,0.3168,0.3055,0.3057,0.3059,0.3156,0,0.254,0.2583,0.261,0.265,0.2675,0.2715,0.2754,0.2803,0.2838,0.289,0.2923,0.2965,0.2952,0.2971,0.3009,0.3045,0.3084,0.3025,0.3097,0.3099,0.3091,0.3183,0.2937,0.3004,0.3168,0.317,0.3171,0,0.2535,0.2568,0.2601,0.2664,0.2678,0.2705,0.2776,0.2815,0.2898,0.2933,0.2989,0.3017,0.3087,0.3059,0.3156,0.3122,0.3146,0.3163,0.3167,0.3156,0.3123,0.2973,0.3019,0.3191,0.319,0.3188,0.3187,0,0.25,0.2559,0.2583,0.2604,0.2678,0.2702,0.2743,0.2822,0.2861,0.2965,0.301,0.3091,0.3142,0.319,0.3243,0.3207,0.3346,0.3298,0.3319,0.3319,0.3117,0.3096,0.3366,0.3366,0.3366,0.3365,0.3365,0,0.2478,0.2499,0.2571,0.2585,0.2617,0.2688,0.2728,0.279,0.288,0.2943,0.3028,0.3101,0.318,0.3264,0.3286,0.3364,0.339,0.3351,0.3357,0.3131,0.3111,0.3269,0.3256,0.3369,0.3368,0.3368,0.3367,0,0.2424,0.247,0.25,0.2576,0.2595,0.262,0.2695,0.2739,0.2842,0.293,0.2969,0.3129,0.326,0.3331,0.3432,0.3429,0.3489,0.3501,0.3235,0.3209,0.3412,0.3401,0.3532,0.3533,0.3534,0.3535,0.3535,0,0.2395,0.2408,0.247,0.2483,0.2507,0.2554,0.2586,0.2694,0.2752,0.2947,0.2996,0.3167,0.3269,0.3439,0.3481,0.3543,0.3556,0.3336,0.3224,0.3444,0.3436,0.3423,0.3412,0.2971,0.2967,0.2963,0.2961,0,0.2338,0.2358,0.2383,0.2411,0.2439,0.2468,0.2535,0.2569,0.2721,0.2815,0.2972,0.3072,0.3275,0.3263,0.3377,0.3369,0.3308,0.3275,0.3582,0.2983,0.2927,0.2916,0.292,0.2931,0.2934,0.2937,0.2938,0.2939,0.2284,0.2282,0.2317,0.2328,0.236,0.2378,0.2372,0.2471,0.2546,0.2665,0.2846,0.2924,0.3033,0.3097,0.3054,0.3036,0.3248,0.3088,0.3092,0.3101,0.3035,0.2986,0.2988,0.2991,0.2994,0.2996,0.2998,0,0.2211,0.2222,0.2237,0.2244,0.2234,0.2286,0.2332,0.2316,0.2364,0.2524,0.2625,0.2516,0.2563,0.2655,0.2605,0.2657,0.256,0.2537,0.2369,0.2404,0.2435,0.2326,0.2095,0.2091,0.2088,0.2085,0,0,0.2176,0.2156,0.216,0.2111,0.2118,0.2076,0.2075,0.208,0.2157,0.2178,0.2217,0.244,0.2598,0.2294,0.2303,0.2183,0.2253,0.2103,0.2843,0.2682,0.2706,0.2794,0.2676,0,0,0,0,0]},{"header":{"parameterUnit":"m.s-1","parameterCategory":2,"la1":30.2991,"la2":30.254,"lo1":-89.0895,"lo2":-89.0444,"dy":0.0017,"dx":0.0017,"nx":28,"ny":28,"refTime":"2024-02-08T03:00:00:Z","depth":"2","parameterNumber":3,"parameterNumberName":"V-component_of_CURRENTS"},"data":[0,0,0,0,0,0,0,0,0,0,0,0,0,0,0,0,0,0,0,0,0,0,0,0,0,0,0,0,0,0,0,0,0,0,0,0,0,0,0,0,0,0,0,0,0,0,0,0,0,0,0,0,0,0,0,0,0,0,-0.0075,-0.0076,0,-0.0155,-0.0156,-0.0157,-0.0206,-0.0207,-0.0207,-0.0207,-0.0323,-0.0326,-0.0329,0,0,0,0,0,0,0,0,0,0,0,0,0,-0.0009,-0.001,-0.0075,-0.0076,-0.0077,-0.0155,-0.0156,-0.0157,-0.0206,-0.0207,-0.0207,-0.0207,-0.0322,-0.0326,-0.0329,0,0,0,0,0,0,0,0,0,0,0,0,0,-0.0058,-0.001,-0.0075,-0.0111,-0.0115,-0.0154,-0.0156,-0.0157,-0.0206,-0.0207,-0.0207,-0.0207,-0.0321,-0.0325,-0.033,-0.0349,0,0,-0.0343,-0.0345,0,0,0,0,0,0,0,0,-0.0055,-0.0061,-0.0104,-0.0108,-0.0113,-0.0171,-0.0175,-0.0223,-0.0206,-0.0172,-0.0207,-0.0207,-0.0275,-0.0283,-0.0297,-0.0354,-0.0359,-0.0343,-0.0346,-0.0348,-0.0349,0,0,0,0,0,0,0,-0.0052,-0.0058,-0.0107,-0.0105,-0.011,-0.0138,-0.0145,-0.0185,-0.0221,-0.0175,-0.0179,-0.0187,-0.0278,-0.0293,-0.0301,-0.0361,-0.0343,-0.0347,-0.0349,-0.0351,-0.0431,-0.043,0,0,0,0,0,0,-0.0039,-0.0054,-0.0104,-0.0109,-0.0084,-0.0138,-0.0146,-0.0152,-0.022,-0.0231,-0.0186,-0.0189,-0.0286,-0.0295,-0.0305,-0.0321,-0.0348,-0.0352,-0.0354,-0.0431,-0.0431,-0.043,0,0,0,0,0,0,-0.0037,-0.0042,-0.0101,-0.0083,-0.0093,-0.0139,-0.0145,-0.0153,-0.017,-0.0229,-0.024,-0.0194,-0.0286,-0.0299,-0.0338,-0.0326,-0.0354,-0.0357,-0.0432,-0.0431,-0.043,-0.036,0,0,0,0,0,0,-0.0034,-0.0041,-0.0039,-0.0082,-0.0093,-0.0119,-0.0145,-0.0155,-0.0174,-0.0178,-0.0239,-0.025,-0.0287,-0.0331,-0.0342,-0.0333,-0.0361,-0.0432,-0.0431,-0.0431,-0.0363,-0.0357,-0.0352,0,0,0,0,0,-0.0032,-0.0026,-0.0038,-0.0045,-0.009,-0.0119,-0.0127,-0.0162,-0.0174,-0.0178,-0.0219,-0.0248,-0.0333,-0.0335,-0.0348,-0.0339,-0.0433,-0.0432,-0.0431,-0.0365,-0.0358,-0.0352,0,0,0,0,0,0,0.0003,-0.0032,-0.0046,-0.0052,-0.0081,-0.0127,-0.0133,-0.0157,-0.0192,-0.0195,-0.025,-0.0264,-0.0293,-0.0326,-0.0326,-0.0358,-0.0385,-0.0386,-0.033,-0.0324,-0.0319,-0.0294,-0.0364,0,0,0,0,0,0.0013,0.0009,-0.0032,-0.0034,-0.0046,-0.0088,-0.0104,-0.0126,-0.0164,-0.018,-0.0221,-0.0262,-0.0298,-0.0319,-0.0356,-0.0379,-0.0409,-0.0379,-0.0373,-0.0368,-0.0356,-0.0398,-0.0395,-0.0427,-0.0427,-0.0427,0,0,0.0026,0.0007,0.0004,-0.0027,-0.0051,-0.0059,-0.0098,-0.0116,-0.0121,-0.0187,-0.0205,-0.0248,-0.03,-0.0323,-0.0338,-0.035,-0.0375,-0.0367,-0.0362,-0.0353,-0.0396,-0.0393,-0.0391,-0.0426,-0.0426,-0.0426,0,0,0.0053,0.0034,0.004,0.002,-0.0011,-0.0035,-0.0037,-0.008,-0.0097,-0.0124,-0.0167,-0.0202,-0.0257,-0.029,-0.0314,-0.0301,-0.0346,-0.031,-0.0263,-0.0303,-0.0301,-0.0299,-0.033,-0.0332,-0.0305,-0.0305,-0.0305,0,0.0072,0.0072,0.0037,0.0037,0.0031,-0.0019,-0.0011,-0.0038,-0.0086,-0.0095,-0.0118,-0.0191,-0.0239,-0.0265,-0.0259,-0.0288,-0.0314,-0.0283,-0.0295,-0.0294,-0.0294,-0.0326,-0.0329,-0.0301,-0.0302,-0.0302,-0.0302,0,0.01,0.0101,0.0104,0.0092,0.008,0.0077,0.004,0.0027,0.0001,-0.0028,-0.0059,-0.0124,-0.0165,-0.0185,-0.022,-0.0234,-0.0255,-0.0285,-0.0309,-0.0286,-0.0322,-0.0326,-0.0296,-0.0298,-0.0299,-0.03,0,0,0.0145,0.0129,0.0131,0.0141,0.011,0.0109,0.0101,0.0083,0.0089,0.0034,0.0034,-0.0034,-0.0068,-0.0097,-0.0147,-0.018,-0.0205,-0.0221,-0.0225,-0.0246,-0.0285,-0.0291,-0.0296,-0.0237,-0.0237,-0.0237,-0.031,0,0.018,0.0201,0.0181,0.0209,0.0218,0.0182,0.0184,0.0161,0.0133,0.0119,0.005,0.0028,-0.0035,-0.0048,-0.0094,-0.0174,-0.0213,-0.0182,-0.0309,-0.0312,-0.0316,-0.03,-0.0271,-0.0332,-0.0314,-0.0315,-0.0315,0,0.0216,0.0227,0.026,0.0276,0.0278,0.0286,0.0292,0.0285,0.0245,0.0222,0.018,0.013,0.0074,0.0017,-0.0107,-0.0083,-0.0174,-0.0242,-0.0247,-0.0277,-0.0325,-0.0354,-0.0341,-0.0323,-0.0322,-0.0322,-0.0321,0,0.0271,0.0287,0.0322,0.0324,0.0327,0.0341,0.0339,0.0316,0.0329,0.0289,0.0296,0.021,0.0181,0.0058,-0.0078,-0.0094,-0.0213,-0.0261,-0.0353,-0.0355,-0.0367,-0.0368,-0.0352,-0.0352,-0.0351,-0.0351,-0.0351,0,0.0316,0.0346,0.0352,0.0371,0.0418,0.0398,0.0439,0.0422,0.0418,0.0452,0.0354,0.0367,0.0192,0.0106,-0.0042,-0.0197,-0.0192,-0.0336,-0.0372,-0.0341,-0.0339,-0.0363,-0.0364,-0.0354,-0.0353,-0.0353,-0.0352,0,0.0366,0.0368,0.0413,0.0433,0.0444,0.0475,0.0506,0.054,0.0519,0.0562,0.056,0.0489,0.0378,0.02,0.001,-0.0134,-0.0294,-0.0354,-0.0298,-0.0326,-0.0422,-0.0417,-0.047,-0.0471,-0.0472,-0.0472,-0.0473,0,0.0392,0.042,0.0463,0.0496,0.0507,0.0546,0.0582,0.0584,0.0631,0.0648,0.0686,0.0604,0.0563,0.0278,0.0018,-0.0237,-0.0281,-0.0386,-0.042,-0.0403,-0.0433,-0.0428,-0.0423,-0.0412,-0.0412,-0.0412,-0.0412,0,0.0443,0.0459,0.0494,0.0557,0.0607,0.0666,0.072,0.0775,0.08,0.0842,0.0892,0.0866,0.0612,0.0372,0.0023,-0.0157,-0.0344,-0.0393,-0.0392,-0.0379,-0.0352,-0.038,-0.0376,-0.0411,-0.0411,-0.0411,-0.0411,-0.0411,0.0483,0.0515,0.056,0.0623,0.0688,0.0777,0.0833,0.0909,0.0996,0.1071,0.105,0.1017,0.0745,0.0309,-0.0001,-0.0335,-0.033,-0.0453,-0.0452,-0.0451,-0.0425,-0.0399,-0.0462,-0.0462,-0.0462,-0.0463,-0.0463,0,0.0524,0.056,0.0622,0.0698,0.0778,0.0806,0.0925,0.0982,0.1095,0.1177,0.1214,0.0971,0.0702,0.0376,-0.0109,-0.0401,-0.0433,-0.0498,-0.047,-0.0468,-0.0467,-0.044,-0.0483,-0.0483,-0.0484,-0.0485,0,0,0.0547,0.0604,0.0631,0.0755,0.082,0.0929,0.1002,0.1091,0.1168,0.1232,0.1237,0.1212,0.0823,0.0476,0.0078,-0.0203,-0.0275,-0.0265,-0.0218,-0.0136,-0.0131,-0.0408,-0.0361,0,0,0,0,0]}],[{"header":{"parameterUnit":"m.s-1","parameterCategory":2,"la1":30.2991,"la2":30.254,"lo1":-89.0895,"lo2":-89.0444,"dy":0.0017,"dx":0.0017,"nx":28,"ny":28,"refTime":"2024-02-08T03:00:00:Z","depth":"4","parameterNumber":2,"parameterNumberName":"U-component_of_CURRENTS"},"data":[0,0,0,0,0,0,0,0,0,0,0,0,0,0,0,0,0,0,0,0,0,0,0,0,0,0,0,0,0,0,0,0,0,0,0,0,0,0,0,0,0,0,0,0,0,0,0,0,0,0,0,0,0,0,0,0,0,0,0.1787,0.1788,0,0.1852,0.1853,0.1853,0.1915,0.1916,0.1917,0.1918,0.1994,0.1995,0.1996,0,0,0,0,0,0,0,0,0,0,0,0,0,0.1695,0.1697,0.1787,0.1788,0.1789,0.1852,0.1853,0.1853,0.1915,0.1916,0.1917,0.1918,0.1994,0.1995,0.1996,0,0,0,0,0,0,0,0,0,0,0,0,0,0.1743,0.1697,0.1787,0.1829,0.1833,0.1852,0.1853,0.1853,0.1915,0.1916,0.1918,0.1919,0.1993,0.1995,0.1997,0.1978,0,0,0.2002,0.2002,0,0,0,0,0,0,0,0,0.1741,0.1746,0.1822,0.1826,0.1831,0.1879,0.1848,0.1896,0.1914,0.1882,0.1918,0.192,0.1957,0.1961,0.1968,0.1982,0.1985,0.2002,0.2003,0.2004,0.2004,0,0,0,0,0,0,0,0.1737,0.1744,0.1811,0.1823,0.1828,0.1837,0.1846,0.1857,0.1909,0.1885,0.189,0.19,0.1959,0.1966,0.197,0.1986,0.2002,0.2003,0.2004,0.2005,0.2114,0.2116,0,0,0,0,0,0,0.1733,0.1741,0.1809,0.1813,0.1791,0.1838,0.1847,0.186,0.1909,0.1918,0.1898,0.1902,0.1962,0.1968,0.1973,0.2067,0.2004,0.2005,0.2006,0.2112,0.2115,0.2117,0,0,0,0,0,0,0.173,0.1738,0.1806,0.178,0.1789,0.1838,0.1852,0.1861,0.1907,0.1919,0.1929,0.1941,0.1964,0.197,0.2019,0.2066,0.2006,0.2007,0.211,0.2113,0.2116,0.2182,0,0,0,0,0,0,0.1728,0.1737,0.1762,0.1779,0.1791,0.1844,0.1851,0.1861,0.1909,0.1916,0.1958,0.1964,0.1965,0.2017,0.2021,0.2067,0.2009,0.2108,0.2112,0.2115,0.2177,0.2186,0.2194,0,0,0,0,0,0.1724,0.1746,0.1763,0.1772,0.1818,0.1846,0.1853,0.189,0.191,0.1936,0.1967,0.1965,0.2043,0.2019,0.2024,0.2072,0.2106,0.211,0.2115,0.2173,0.2185,0.2194,0,0,0,0,0,0,0.1721,0.1755,0.1774,0.1807,0.1838,0.1858,0.189,0.191,0.1953,0.1972,0.1981,0.199,0.2053,0.205,0.2024,0.2115,0.2077,0.2083,0.212,0.2131,0.214,0.2135,0.201,0,0,0,0,0,0.173,0.1761,0.1788,0.1821,0.184,0.1871,0.1895,0.192,0.195,0.1973,0.2002,0.2035,0.2066,0.209,0.2114,0.2155,0.2155,0.2192,0.22,0.2207,0.2208,0.2248,0.226,0.2131,0.2131,0.2131,0,0,0.1738,0.1763,0.1782,0.1824,0.1853,0.1884,0.1891,0.1938,0.1974,0.1972,0.2044,0.2068,0.2085,0.2139,0.2167,0.2147,0.2247,0.2213,0.2219,0.2216,0.2254,0.2266,0.2277,0.2134,0.2133,0.2133,0,0,0.1755,0.1794,0.1822,0.1852,0.1903,0.192,0.1942,0.1984,0.2021,0.2076,0.2093,0.2143,0.2189,0.2212,0.2226,0.2294,0.2292,0.2315,0.2355,0.2394,0.2405,0.2414,0.2439,0.245,0.2318,0.2318,0.2318,0,0.1767,0.1802,0.1835,0.1869,0.1899,0.194,0.1973,0.2011,0.2069,0.2101,0.2113,0.2202,0.2221,0.228,0.2311,0.2314,0.2332,0.2313,0.2405,0.2414,0.2423,0.2445,0.2456,0.2322,0.2321,0.2321,0.2321,0,0.1791,0.1835,0.1857,0.1913,0.1949,0.1988,0.2037,0.2091,0.2138,0.2171,0.2255,0.2284,0.2336,0.2358,0.2357,0.2434,0.2426,0.2412,0.2375,0.244,0.2459,0.247,0.2327,0.2326,0.2325,0.2324,0,0,0.1769,0.1856,0.1868,0.1904,0.1977,0.2006,0.2077,0.2141,0.2194,0.2262,0.2328,0.2393,0.2421,0.2438,0.2455,0.249,0.257,0.2485,0.2485,0.2503,0.2659,0.2515,0.2513,0.2579,0.2581,0.2583,0.2651,0,0.1779,0.1844,0.1885,0.1955,0.1992,0.2056,0.2114,0.2185,0.2247,0.2324,0.2378,0.2447,0.2449,0.2489,0.2529,0.2564,0.2601,0.2553,0.2599,0.26,0.2459,0.252,0.259,0.2659,0.2661,0.2663,0.2664,0,0.1777,0.1826,0.1891,0.1983,0.2006,0.2058,0.216,0.2218,0.2324,0.2378,0.2457,0.2501,0.2586,0.2569,0.2663,0.2639,0.2659,0.2672,0.2675,0.2521,0.2475,0.2581,0.2682,0.2681,0.268,0.2678,0.2677,0,0.1731,0.1826,0.188,0.1912,0.202,0.2073,0.2138,0.2241,0.2295,0.2423,0.2478,0.2573,0.2639,0.2685,0.2734,0.2713,0.2819,0.2785,0.267,0.266,0.2739,0.2728,0.2842,0.2842,0.2841,0.2841,0.2841,0,0.1702,0.1751,0.1873,0.1903,0.1974,0.2065,0.2145,0.2225,0.2337,0.2401,0.2509,0.2569,0.2676,0.2746,0.2767,0.2755,0.2851,0.2684,0.267,0.2767,0.2758,0.2747,0.2735,0.2844,0.2843,0.2843,0.2842,0,0.1631,0.1712,0.1781,0.1909,0.1952,0.2007,0.2135,0.2189,0.2314,0.2404,0.2451,0.2595,0.2687,0.2765,0.2849,0.2782,0.2792,0.2763,0.2874,0.2866,0.2596,0.2587,0.2623,0.2619,0.2615,0.2612,0.2609,0,0.1595,0.1628,0.1766,0.1808,0.187,0.1965,0.2022,0.216,0.2213,0.2397,0.2427,0.2572,0.2651,0.2645,0.2749,0.2775,0.2746,0.2724,0.2637,0.2591,0.2576,0.2573,0.2569,0.2603,0.2602,0.2601,0.26,0,0.1523,0.1589,0.1646,0.1734,0.1808,0.1867,0.1967,0.1988,0.2145,0.228,0.2336,0.2387,0.2487,0.2548,0.2595,0.2609,0.272,0.2684,0.269,0.2608,0.2567,0.2555,0.2556,0.2587,0.2589,0.259,0.2591,0,0.1472,0.1492,0.1581,0.1638,0.1723,0.175,0.1812,0.1877,0.1942,0.2136,0.2158,0.2316,0.2458,0.2465,0.2514,0.2516,0.2469,0.2371,0.2393,0.2409,0.231,0.2225,0.2133,0,0,0,0,0,0.141,0.1422,0.1477,0.1531,0.1609,0.1657,0.1766,0.1834,0.1983,0.1962,0.2047,0.2128,0.2195,0.2286,0.2246,0.2442,0.2493,0.2386,0.2394,0.2514,0.2529,0.2435,0,0,0,0,0,0,0.1371,0.1421,0.1438,0.143,0.1446,0.1514,0.1577,0.168,0.1672,0.1831,0.1876,0.2,0.21,0.2193,0.2204,0.2233,0.2194,0.2489,0.2484,0.2506,0.2519,0.2532,0.244,0,0,0,0,0]},{"header":{"parameterUnit":"m.s-1","parameterCategory":2,"la1":30.2991,"la2":30.254,"lo1":-89.0895,"lo2":-89.0444,"dy":0.0017,"dx":0.0017,"nx":28,"ny":28,"refTime":"2024-02-08T03:00:00:Z","depth":"4","parameterNumber":3,"parameterNumberName":"V-component_of_CURRENTS"},"data":[0,0,0,0,0,0,0,0,0,0,0,0,0,0,0,0,0,0,0,0,0,0,0,0,0,0,0,0,0,0,0,0,0,0,0,0,0,0,0,0,0,0,0,0,0,0,0,0,0,0,0,0,0,0,0,0,0,0,-0.0073,-0.0074,0,-0.0133,-0.0134,-0.0135,-0.0176,-0.0176,-0.0176,-0.0176,-0.0274,-0.0276,-0.0279,0,0,0,0,0,0,0,0,0,0,0,0,0,-0.0025,-0.0026,-0.0073,-0.0074,-0.0074,-0.0133,-0.0134,-0.0135,-0.0176,-0.0176,-0.0176,-0.0177,-0.0273,-0.0276,-0.0279,0,0,0,0,0,0,0,0,0,0,0,0,0,-0.0062,-0.0026,-0.0073,-0.0102,-0.0105,-0.0133,-0.0134,-0.0135,-0.0175,-0.0176,-0.0176,-0.0177,-0.0272,-0.0276,-0.0279,-0.0293,0,0,-0.029,-0.0292,0,0,0,0,0,0,0,0,-0.006,-0.0064,-0.0097,-0.01,-0.0103,-0.0147,-0.0153,-0.019,-0.0175,-0.0149,-0.0176,-0.0177,-0.0235,-0.0241,-0.0252,-0.0298,-0.0302,-0.029,-0.0293,-0.0294,-0.0295,0,0,0,0,0,0,0,-0.0057,-0.0061,-0.0097,-0.0097,-0.0101,-0.0122,-0.0128,-0.016,-0.019,-0.0151,-0.0154,-0.016,-0.0237,-0.0248,-0.0254,-0.0303,-0.029,-0.0293,-0.0296,-0.0297,-0.0366,-0.0366,0,0,0,0,0,0,-0.0047,-0.0059,-0.0095,-0.0099,-0.0082,-0.0123,-0.0129,-0.0133,-0.0189,-0.0197,-0.016,-0.0162,-0.0242,-0.025,-0.0258,-0.0274,-0.0294,-0.0297,-0.0299,-0.0366,-0.0366,-0.0365,0,0,0,0,0,0,-0.0046,-0.0049,-0.0093,-0.008,-0.0087,-0.0123,-0.0127,-0.0134,-0.0149,-0.0195,-0.0204,-0.0168,-0.0242,-0.0253,-0.0288,-0.0279,-0.0299,-0.0302,-0.0366,-0.0366,-0.0366,-0.031,0,0,0,0,0,0,-0.0044,-0.0049,-0.0048,-0.0079,-0.0087,-0.0107,-0.0127,-0.0135,-0.0151,-0.0155,-0.0205,-0.0214,-0.0244,-0.0282,-0.0291,-0.0284,-0.0305,-0.0367,-0.0366,-0.0366,-0.0312,-0.0307,-0.0304,0,0,0,0,0,-0.0042,-0.0039,-0.0047,-0.0052,-0.0085,-0.0107,-0.0113,-0.014,-0.0151,-0.0155,-0.019,-0.0213,-0.0285,-0.0285,-0.0296,-0.0289,-0.0367,-0.0366,-0.0366,-0.0314,-0.0308,-0.0304,0,0,0,0,0,0,-0.0019,-0.0043,-0.0054,-0.0058,-0.008,-0.0114,-0.012,-0.0138,-0.0168,-0.0172,-0.0216,-0.0227,-0.0253,-0.0279,-0.0279,-0.0307,-0.0327,-0.0329,-0.0284,-0.0279,-0.0275,-0.0254,-0.0308,0,0,0,0,0,-0.0012,-0.0015,-0.0044,-0.0046,-0.0055,-0.0087,-0.0099,-0.0116,-0.0147,-0.016,-0.0194,-0.0228,-0.0257,-0.0275,-0.0306,-0.0325,-0.035,-0.0326,-0.0322,-0.0318,-0.0308,-0.0343,-0.034,-0.0363,-0.0363,-0.0363,0,0,-0.0004,-0.0017,-0.0019,-0.0041,-0.0059,-0.0065,-0.0095,-0.011,-0.0113,-0.0166,-0.0183,-0.0218,-0.026,-0.028,-0.0293,-0.0302,-0.0325,-0.0317,-0.0314,-0.0305,-0.0342,-0.0339,-0.0337,-0.0363,-0.0363,-0.0363,0,0,0.0015,0.0,0.0005,-0.0009,-0.0032,-0.0049,-0.0051,-0.0084,-0.0098,-0.012,-0.0155,-0.0184,-0.023,-0.0255,-0.0274,-0.0266,-0.0303,-0.0275,-0.0237,-0.0271,-0.0269,-0.0268,-0.0294,-0.0295,-0.0271,-0.0271,-0.0271,0,0.0027,0.0028,0.0002,0.0003,-0.0001,-0.0038,-0.0032,-0.0051,-0.009,-0.0097,-0.0117,-0.0177,-0.0216,-0.0236,-0.0231,-0.0256,-0.0279,-0.0252,-0.0264,-0.0264,-0.0264,-0.0291,-0.0293,-0.0268,-0.0269,-0.0269,-0.0269,0,0.0046,0.0048,0.005,0.0042,0.0035,0.0033,0.0007,-0.0004,-0.0025,-0.0046,-0.0072,-0.0124,-0.0157,-0.0174,-0.0202,-0.0214,-0.0232,-0.0256,-0.0275,-0.0258,-0.0288,-0.0291,-0.0264,-0.0265,-0.0266,-0.0267,0,0,0.0073,0.0066,0.0068,0.0078,0.0057,0.0057,0.0053,0.0041,0.0046,0.0002,0.0002,-0.0052,-0.008,-0.0102,-0.0143,-0.017,-0.0193,-0.0205,-0.0209,-0.0226,-0.0261,-0.0257,-0.0261,-0.022,-0.0221,-0.0221,-0.0282,0,0.0098,0.0116,0.0104,0.0128,0.0136,0.0112,0.0116,0.0101,0.0081,0.0069,0.0015,-0.0003,-0.0052,-0.0063,-0.0101,-0.0168,-0.02,-0.0173,-0.0279,-0.0282,-0.0276,-0.0264,-0.0222,-0.0284,-0.0285,-0.0286,-0.0286,0,0.0121,0.0131,0.0159,0.0178,0.0181,0.0191,0.02,0.0196,0.0168,0.015,0.0118,0.0078,0.0033,-0.0013,-0.0115,-0.0096,-0.017,-0.0226,-0.023,-0.0246,-0.0284,-0.0307,-0.0293,-0.0293,-0.0292,-0.0292,-0.0291,0,0.0155,0.0173,0.0203,0.0206,0.0216,0.0231,0.0234,0.0221,0.0234,0.0204,0.021,0.0141,0.0117,0.0017,-0.0096,-0.0107,-0.021,-0.0244,-0.0311,-0.0312,-0.0323,-0.0324,-0.0319,-0.0318,-0.0318,-0.0318,-0.0318,0,0.0183,0.0207,0.0224,0.024,0.0282,0.0273,0.031,0.0301,0.0303,0.0329,0.0257,0.0262,0.0125,0.0051,-0.007,-0.0192,-0.0194,-0.0297,-0.0325,-0.0299,-0.0296,-0.0326,-0.0326,-0.032,-0.032,-0.0319,-0.0319,0,0.0209,0.0218,0.0257,0.0284,0.0298,0.0326,0.0364,0.0391,0.0382,0.0415,0.0414,0.0355,0.0258,0.0118,-0.004,-0.0143,-0.0271,-0.0319,-0.0264,-0.029,-0.036,-0.0356,-0.0397,-0.0397,-0.0397,-0.0398,-0.0398,0,0.0222,0.0245,0.0293,0.0324,0.0339,0.0378,0.0412,0.0424,0.046,0.0476,0.05,0.0432,0.0369,0.0163,-0.0006,-0.0228,-0.0269,-0.0338,-0.0363,-0.0343,-0.0367,-0.0363,-0.0359,-0.0398,-0.0398,-0.0398,-0.0398,0,0.0248,0.0267,0.0298,0.0359,0.0407,0.046,0.051,0.0546,0.0571,0.0576,0.0585,0.0482,0.0371,0.0188,0.0019,-0.0148,-0.0294,-0.0342,-0.0343,-0.0367,-0.0345,-0.0368,-0.0364,-0.0399,-0.0399,-0.0399,-0.0399,0,0.0268,0.0293,0.0336,0.0391,0.0457,0.0523,0.0545,0.0594,0.0628,0.0652,0.0656,0.0531,0.0464,0.023,0.0072,-0.0087,-0.0142,-0.0207,-0.0217,-0.0218,-0.0157,-0.0102,-0.0096,0,0,0,0,0,0.0283,0.0311,0.0364,0.0425,0.0494,0.0531,0.0607,0.0626,0.0662,0.0686,0.0676,0.0576,0.036,0.0263,0.0107,0.0033,-0.0193,-0.016,-0.0277,-0.0404,-0.0403,-0.0363,0,0,0,0,0,0,0.0292,0.0337,0.0361,0.0445,0.0492,0.057,0.0621,0.0648,0.0658,0.0675,0.0567,0.0525,0.0312,0.0453,0.0101,0.0052,-0.0048,-0.0259,-0.0263,-0.0405,-0.0404,-0.0403,-0.0361,0,0,0,0,0]}]]